Location: Buffign�court
(47.8126°N, 6.0176°E)
Time: 02:03:14
(UTC+00:00)

Cosmos 1850 Rocket - Pass Details

Date: 16 June 2021
Orbit: 754 x 785 km, 74.0° (Epoch: 25 July)

Event Time Altitude Azimuth Distance (km) Brightness Sun altitude
Rises 21:03:43 0° 335° (NNW) 3,277 9.2 -11.0°
Reaches altitude 10° 21:06:08 10° 332° (NNW) 2,341 8.1 -11.2°
Maximum altitude 21:11:24 66° 252° (WSW) 848 4.3 -11.7°
Enters shadow 21:15:56 14° 172° (S) 2,055 5.7 -12.1°
